Location: Arena
(42.5007°N, 9.4650°E)
Time: 02:26:07
(UTC+00:00)

Cosmos 1603 - Pass Details

Date: 09 April 2020
Orbit: 831 x 859 km, 71.0° (Epoch: 29 May)

Event Time Altitude Azimuth Distance (km) Brightness Sun altitude
Rises 18:14:04 0° 211° (SSW) 3,375 7.1 -3.8°
Reaches altitude 10° 18:16:31 10° 214° (SW) 2,441 6.4 -4.2°
Maximum altitude 18:22:05 65° 296° (WNW) 914 4.3 -5.2°
Drops below altitude 10° 18:27:39 10° 19° (NNE) 2,447 6.1 -6.2°
Sets 18:30:08 0° 22° (NNE) 3,384 6.8 -6.6°
